Flag for U.S.A. Weather past 2 weeks in Lakewood, New Jersey, U.S.A.

Now
30 °F

Overcast.


Feels Like: 25 °F
Forecast: 24 / 40 °F
Wind: 5 mph from West

Location: Belmar-Farmdale

Current Time: Dec 21, 2014 at 8:39:16 AM

Latest Report: Dec 21, 2014 at 8:15 AM


Visibility: 10 mi

Pressure: 30.30 "Hg

Humidity: 64%

Dew point: 19 °F

Location of LakewoodLocation

Historic Weather in Lakewood — Graph

°F

Lakewood temperature yesterday

Maximum temperature yesterday: 34 °F (at 11:15 AM)
Minimum temperature yesterday: 30 °F (at 12:15 AM)
Average temperature yesterday: 31 °F

Past Weeks' High & Low Weather Summary

 TemperatureHumidityPressure
High54 °F (Dec 17, 11:55 AM)88% (Dec 6, 5:35 PM)30.63 "Hg (Dec 6, 5:35 PM)
Low28 °F (Dec 8, 2:55 AM)34% (Dec 7, 11:35 PM)29.61 "Hg (Dec 10, 1:35 PM)
Average38 °F64%30.03 "Hg
* Reported Dec 6 7:15 AM — Dec 21 7:35 AM, Lakewood, Weather by CustomWeather, © 2014

Note: Actual official high and low records may vary slightly from our data, if they occured in-between our weather recording intervals... More about our weather records

Advertising

Lakewood weather history for previous 24 hours

 ConditionsComfort  
Time TempWeatherWind HumidityBarometerVisibility
7:35 AM
Dec 21
30 °FOvercast.3 mph64%30.30 "Hg10 mi
7:15 AM30 °FMostly cloudy.No wind64%30.30 "Hg10 mi
6:35 AM30 °FPassing clouds.7 mph59%30.29 "Hg10 mi
6:15 AM30 °FPartly cloudy.7 mph64%30.28 "Hg10 mi
5:55 AM30 °FMostly cloudy.6 mph64%30.27 "Hg10 mi
5:35 AM30 °FOvercast.7 mph64%30.27 "Hg10 mi
5:15 AM30 °FOvercast.6 mph64%30.27 "Hg10 mi
4:55 AM32 °FOvercast.5 mph60%30.27 "Hg10 mi
4:35 AM30 °FOvercast.6 mph64%30.27 "Hg10 mi
4:15 AM30 °FOvercast.7 mph64%30.27 "Hg10 mi
3:55 AM30 °FOvercast.7 mph64%30.27 "Hg10 mi
3:35 AM30 °FOvercast.6 mph64%30.27 "Hg10 mi
3:15 AM30 °FOvercast.6 mph64%30.27 "Hg10 mi
2:55 AM30 °FOvercast.6 mph64%30.28 "Hg10 mi
2:35 AM30 °FOvercast.5 mph64%30.27 "Hg10 mi
2:15 AM30 °FOvercast.5 mph64%30.27 "Hg10 mi
1:55 AM30 °FOvercast.5 mph64%30.27 "Hg10 mi
1:35 AM30 °FOvercast.6 mph64%30.27 "Hg10 mi
1:15 AM30 °FOvercast.5 mph59%30.28 "Hg10 mi
12:55 AM30 °FOvercast.5 mph64%30.28 "Hg10 mi
12:35 AM30 °FOvercast.7 mph64%30.27 "Hg10 mi
12:15 AM30 °FOvercast.5 mph64%30.27 "Hg10 mi
11:55 PM
Dec 20
30 °FOvercast.5 mph64%30.28 "Hg10 mi
11:35 PM30 °FOvercast.5 mph59%30.28 "Hg10 mi
11:15 PM30 °FOvercast.5 mph64%30.28 "Hg10 mi
10:55 PM30 °FOvercast.5 mph64%30.28 "Hg10 mi
10:35 PM30 °FOvercast.6 mph64%30.27 "Hg10 mi
10:15 PM30 °FOvercast.6 mph64%30.27 "Hg10 mi
9:55 PM30 °FOvercast.5 mph59%30.28 "Hg10 mi
9:35 PM30 °FOvercast.5 mph64%30.29 "Hg10 mi
9:15 PM30 °FOvercast.3 mph64%30.29 "Hg10 mi
8:55 PM30 °FOvercast.5 mph59%30.29 "Hg10 mi
8:35 PM30 °FOvercast.No wind59%30.28 "Hg10 mi
8:15 PM30 °FOvercast.No wind59%30.28 "Hg10 mi
7:35 PM30 °FPassing clouds.5 mph59%30.28 "Hg10 mi
7:15 PM30 °FPassing clouds.6 mph59%30.28 "Hg10 mi
6:55 PM30 °FPassing clouds.7 mph59%30.28 "Hg10 mi
6:35 PM32 °FOvercast.5 mph55%30.28 "Hg10 mi
6:15 PM32 °FOvercast.5 mph60%30.28 "Hg10 mi
5:55 PM32 °FOvercast.5 mph60%30.28 "Hg10 mi
5:35 PM32 °FOvercast.7 mph60%30.27 "Hg10 mi
5:15 PM32 °FOvercast.7 mph55%30.27 "Hg10 mi
4:55 PM32 °FOvercast.8 mph55%30.26 "Hg10 mi
4:35 PM32 °FOvercast.7 mph55%30.26 "Hg10 mi
3:55 PM32 °FOvercast.7 mph60%30.26 "Hg10 mi
3:35 PM34 °FOvercast.6 mph56%30.25 "Hg10 mi
3:15 PM34 °FOvercast.8 mph56%30.25 "Hg10 mi
2:55 PM34 °FOvercast.6 mph56%30.25 "Hg10 mi
2:35 PM34 °FOvercast.7 mph56%30.25 "Hg10 mi
2:15 PM34 °FOvercast.6 mph56%30.25 "Hg10 mi
1:55 PM34 °FOvercast.3 mph56%30.26 "Hg10 mi
1:35 PM34 °FOvercast.6 mph56%30.26 "Hg10 mi
1:15 PM34 °FOvercast.6 mph56%30.25 "Hg10 mi
12:55 PM34 °FOvercast.6 mph51%30.25 "Hg10 mi
12:35 PM34 °FOvercast.7 mph56%30.25 "Hg10 mi
12:15 PM34 °FOvercast.8 mph56%30.26 "Hg10 mi
11:55 AM34 °FOvercast.8 mph56%30.27 "Hg10 mi
11:35 AM34 °FOvercast.8 mph56%30.28 "Hg10 mi
11:15 AM34 °FOvercast.8 mph56%30.29 "Hg10 mi
10:55 AM32 °FOvercast.8 mph60%30.29 "Hg10 mi
10:35 AM32 °FOvercast.6 mph60%30.29 "Hg10 mi
10:15 AM32 °FOvercast.7 mph60%30.29 "Hg10 mi
9:55 AM32 °FOvercast.7 mph55%30.30 "Hg10 mi
9:35 AM32 °FOvercast.6 mph55%30.30 "Hg10 mi
9:15 AM32 °FOvercast.7 mph60%30.30 "Hg10 mi
8:55 AM32 °FOvercast.7 mph55%30.29 "Hg10 mi
8:35 AM32 °FOvercast.6 mph55%30.27 "Hg10 mi
8:15 AM30 °FOvercast.7 mph59%30.27 "Hg10 mi
Weather by CustomWeather, © 2014

See weather overviewHow to use our weather pages